Погода в Семиярке

Погода в Семиярке : погода сейчас, прогноз погоды и архив. Всё, что Вы хотите узнать о погоде в Семиярке!

Хотите узнать прогноз погоды в Семиярке? Тогда Вам сюда: Погода в Семиярке

Поиск расширенной информации на нашем сайте:

Другие новости

Новости СМИ2

Главная страница сайта

Новости сайта

02.10.2013

Напоминаем, что на нашем новом сайте вы можете получить высокодетализированные прогнозы погоды по пунктам России, СНГ и мира (включающие важные для авиации метеовеличины, такие как направление и скорость ветра, видимость, явления погоды, количество и форма облачности, нижняя и верхняя граница облачности), а также ознакомиться с разнообразными материалами по авиационной метеорологии и подборкой полезных ссылок на эту тему.

Сайт Метеоцентр.Азия посвящён разработке технологий оптимизации авиаметеорологического обслуживания, включая проектирование и перспективное создание нескольких автоматизированных авиаметеорологических систем:
- система выпуска высокодетальных прогностических карт явлений погоды для нижнего воздушного пространства по России и ближнему зарубежью;
- система верификации прогнозов TAF (выпускаемых синоптиками официальных АМСГ РФ и ближнего зарубежья) и AUTOTAF (выпускаемых сайтом Метеоцентр.Азия) - выявление ошибок, онлайн-сопоставление с фактической погодой METAR, автоматическое внесение коррективов в прогнозы при резком отклонении фактической погоды от прогноза, подсчёт оправдываемости прогнозов по элементам и в целом;
- система обработки, анализа и отображения авиаметеорологической информации для применения провайдерами метеорологической информации.

Рекомендуем: Ларсон энд Хольц vipkor.ru.

Погода в Семиярке - сегодня

Время (UTC), дата Ветер
(°,м/с) 
Видим.   Явления Облачность Т
(°С)
Тd
(°С)
f(%) Тe
(°С)
Pmin
(гПа)
dP
(гПа)
Po
(мм)
O2
(г/м3)
Тmin Tmax R s Состояние
почвы
18 23.03.17 130 (ЮВ) н/о    ясно 
-17.1 -18.5 89 -20  1035.2  -1.1  761  329    -4.5       
21 23.03.17 130 (ЮВ) н/о    ясно 
-17.5 -18.7 90 -20  1033.4  -1.8  760  329           
00 24.03.17 120 (ЮВ) н/о    ясно 
-18.5 -19.4 93 -25  1031.4  -2.1  758  329           
03 24.03.17 120 (ЮВ) 20000 м    3/0 верхняя 
[Ci sp]
-18.1 -18.7 95 -27  1029.6  -1.7  757  328        34  неравномерный
сухой снег
100% 
06 24.03.17 140 (ЮВ) 20000 м    9/0 верхняя 
[Cs]
-6.3 -9.9 76 -12  1026.9  -1.8  756  313  -18.8         
09 24.03.17 130 (ЮВ) 10  20000 м    3/0 средняя, верхняя 
[Ac lent|Ci sp]
-0.5 -2.3 88 -5  1023.4  -3  754  304           
12 24.03.17 130 (ЮВ) 10  20000 м    10/0 средняя 
[Ac As]
+1.8 +1.3 96 -3  1020.3  -2.9  751  301           
15 24.03.17 140 (ЮВ) н/о    10/0 средняя 
[As op]
+1.2 +0.7 96 -3  1019.6  -0.7  751  301    +2.5       
18 24.03.17 130 (ЮВ) н/о  слаб. дождь  10/10 600 м 
[Ns]
+1.2 +0.7 96 -2  1019.3  -0.3  751  301    +2.5       
21 24.03.17 150 (ЮВ) н/о  {дождь}  10/10 600 м 
[Sc]
+1.7 +1.2 96 -1  1018.9  -0.3  750  300           
00 25.03.17 210 (ЮЗ) н/о  слаб. дождь  10/10 600 м 
[Ns]
+1.8 +1.3 96 1019.6  0.6  751  300           
03 25.03.17 160 (Ю) 4000 м  слаб. дождь  10/10 600 м 
[Ns]
+1 +0.5 96 -1  1019.8  0.2  751  301      32  неравномерный
мокрый или
старый снег
100% 
09 25.03.17 240 (ЮЗ) 20000 м    10/10 600 м 
[Sc]
+2.7 +1.1 89 +2  1021  0.7  752  300           
12 25.03.17 280 (З) 20000 м    10/10 600 м 
[Sc]
+1.7 +0.3 90 1022.6  1.5  753  302           
15 25.03.17 260 (З) н/о    6/6 600 м 
[Sc]
+0.8 -0.6 90 1024.6  1.9  755  303    +3.3  0.0     
18 25.03.17 290 (З) н/о    4/0 средняя, верхняя 
[Ac trans|Ci fib]
-1.6 -3 90 -3  1026.1  1.3  755  307    +3.3  0.0     
21 25.03.17 тихо ()   н/о    ясно 
-4.4 -6 89 -4  1026.9  0.6  756  310           
00 26.03.17 тихо ()   н/о    10/0 средняя 
[Ac As]
-5.8 -6.9 92 -6  1027.8  0.8  757  312           
03 26.03.17 090 (В) 0200 м  туман  ?/?  
-3.4 -3.8 97 -5  1027.6  0.1  756  309        27  неравномерный
мокрый или
старый снег
100% 
06 26.03.17 130 (ЮВ) 4000 м  дымка{туман}  10/10 600 м 
[Sc]
-2.4 -3.3 94 -5  1025.2  -2.3  755  307  -7.2         
09 26.03.17 100 (В) 20000 м    9/0 средняя, верхняя 
[Ac trans|Cs]
-0.4 -2.2 88 -1  1022  -3  752  304           
12 26.03.17 120 (ЮВ) 20000 м    10/0 средняя 
[Ac As]
+0 -1.5 90 -1  1018.1  -3.8  750  302           
15 26.03.17 120 (ЮВ) н/о  слаб. ливневой снег  10/10 600 м кучево-дожд. 
[Cb calv]
+0.2 -0.7 94 -2  1014.9  -3.1  747  301    +1  0.0     
21 26.03.17 210 (ЮЗ) н/о    10/10 600 м кучево-дожд. 
[Cb calv]
+1.8 +0.2 89 -1  1012.8  0.2  746  299           
00 27.03.17 240 (ЮЗ) н/о    10/10 600 м кучево-дожд. 
[Cb calv]
+1.7 +0.3 90 -2  1014.4  1.5  747  299           
Время (UTC), дата Ветер
(°,м/с) 
Видим.   Явления Облачность Т
(°С)
Тd
(°С)
f(%) Тe
(°С)
Pmin
(гПа)
dP
(гПа)
Po
(мм)
O2
(г/м3)
Тmin Tmax R s Состояние
почвы

Для получения пояснительной информации подведите курсор к названию столбца.

ПОГОДА в Семиярке - архив

Всё, что Вы хотите узнать о погоде в Семиярке - удобно и подробно!

Выберите нужную дату (начиная с 1 января 2015* года) и нажмите кнопку "Найти".
Будут отображены архивные сводки погоды по пункту Семиярка, начиная с указанной даты.


Отображать данные в формате CSV (для использования в таблицах Excel)


Внимание! Наш архив погоды предназначен исключительно для личного некоммерческого использования в познавательных целях. Если Вам необходимы официальные справки о состоянии погоды (для производственных, юридических, коммерческих и т.п. целей), обращайтесь в органы Росгидромета.

*Примечание: данная дата относится к архиву по метеостанциям СССР (Россия, СНГ, Балтия).
Архив по метеостанциям Зарубежной Европы и Азии (кроме Китая) хранится 10 дней, по другим регионам земного шара (Китай, Африка, Америка, Австралия, Океания) - 1 день.

Семиярка - район местоположения метеостанции


Название, широта, долгота, высота метеостанции:
Семиярка 50.9°ш. 78.3°д. 149 м над ур. моря [Казахстан]

Дополнительная информация

В oтличие oт бoльшинства пoгoдных сайтoв мы публикуем пoдрoбную метеoинфoрмацию в детальнoм прoфессиoнальнoм фoрмате.

Характеристики температуры и влажнoсти вoздуха измеряются на высoте 2 м в тени вдали oт зданий и деревьев.
Скoрoсть ветра измеряется на высoте 10 м (на урoвне рoста челoвека скoрoсть ветра ниже в 1.5-2 раза). Если метеoстанция нахoдится в гoрoде или в лесу, тo скoрoсть ветра занижена на 2-4 м/с пo сравнению с oткрытым местoм. Скoрoсть ветра над акватoриями крупных рек и oзёр, а также на вершинах хoлмoв на 2-5 м/с выше, чем в oбычных услoвиях.
Атмoсфернoе давление в разных тoчках местнoсти мoжет значительнo oтличаться oт давления на метеoстанции, в зависимoсти oт услoвий рельефа (при пoдъёме на 10 м давление пoнижается примернo на 1 мм рт.ст.).